SCP
1 0 0 0 0 0 0 0 0 0 0 0 0 0 0 0 0 0 0 0 0 0 0 0 0 0 0 0 0 0 0 0 0 0 0 0 0 0 0 0 0 0 0
1 0 0 0 0 0 0 0 0 0 0 0 0 0 0 0 0 0 -0 0 0 0 0 0 0 0 0 0 0 0 0 0 0 0 0 0 0 0 0 0 0 0 0
1 1 0 0 0 0 0 0 0 0 0 0 0 0 0 0 0 0 0 0 0 0 0 0 0 0 0 0 0 0 0 0 0 0 0 0 0 0 0 0 0 0 0
1 2 0 0 0 0 0 0 0 0 0 0 0 0 0 0 0 0 0 0 0 0 0 0 0 0 0 0 0 0 0 0 0 0 0 0 0 0 0 0 0 0 0
1 2 0 0 1 0 0 0 0 0 0 0 0 0 0 0 1 0 0 0 0 0 0 0 0 0 0 0 0 0 0 0 0 0 0 0 0 0 0 0 0 0 0
1 2 0 0 1 0 0 0 0 0 0 0 0 0 0 0 0 0 1 1 1 1 0 0 0 0 0 0 0 0 0 0 0 0 0 0 0 0 0 0 0 0 0
1 2 1 1 1 0 0 1 1 1 0 0 0 0 0 1 1 0 1 1 1 1 0 0 0 0 0 0 0 0 0 0 0 0 0 0 0 0 0 0 0 0 0
2 3 2 1 1 0 1 2 1 0 0 0 0 0 0 0 0 1 1 1 1 1 0 0 0 0 0 0 0 0 0 0 0 0 0 0 0 0 0 0 0 0 0
3 3 2 2 2 1 1 2 2 1 0 0 0 0 0 0 1 1 1 1 1 1 1 0 0 0 0 0 0 0 0 0 0 0 0 0 0 0 0 0 0 0 0
3 2 3 3 3 1 1 2 1 0 1 0 0 0 1 1 1 1 0 1 1 1 1 0 0 0 0 0 0 0 0 0 0 0 0 0 0 0 0 0 0 0 0
4 2 2 3 5 2 2 1 1 1 0 0 0 0 1 1 2 1 0 0 0 1 1 0 0 0 0 0 0 0 0 0 0 0 0 0 0 0 0 0 0 0 0
6 4 2 3 4 3 2 3 3 1 1 1 1 1 1 1 0 0 0 1 0 0 0 0 0 0 0 0 0 0 0 0 0 0 0 0 0 0 0 0 0 0 0
5 5 4 3 3 3 4 1 4 2 2 1 2 1 0 0 0 0 0 0 1 0 0 0 0 0 0 0 0 0 0 0 0 0 0 0 0 0 0 0 0 0 0
5 5 4 4 3 3 4 2 4 3 2 3 2 2 0 1 0 0 0 0 1 1 0 0 0 0 0 0 0 0 0 0 0 0 0 0 0 0 0 0 0 0 0
4 5 5 5 5 4 5 6 4 3 2 2 3 2 2 1 0 0 0 0 0 1 0 0 0 0 0 0 0 0 0 0 0 0 0 0 0 0 0 0 0 0 0
3 4 5 5 5 4 5 5 4 3 3 3 3 2 2 2 1 1 1 0 0 0 1 0 0 0 0 0 0 0 0 0 0 0 0 0 0 0 0 0 0 0 0
1 3 6 5 4 5 4 4 3 3 1 3 2 3 2 2 1 1 1 1 1 1 1 0 0 0 0 0 0 0 0 0 0 0 0 0 0 0 0 0 0 0 0
0 1 0 3 4 3 4 3 3 1 1 1 3 2 3 2 1 2 2 3 2 2 1 0 0 0 0 0 0 0 0 -0 0 0 0 0 0 0 0 0 0 0 0
1 0 0 1 1 1 2 4 3 1 1 1 2 2 3 3 2 2 3 6 3 1 0 0 0 0 0 0 0 0 0 0 0 0 0 -0 0 0 0 0 0 0 0
0 0 0 0 0 2 4 3 2 2 1 1 1 1 1 3 4 3 3 4 1 0 0 0 0 0 0 0 0 0 0 0 0 0 0 -0 0 0 0 0 0 0 0
0 0 0 0 0 -0 2 1 1 1 1 1 1 1 1 1 1 2 2 1 1 0 0 0 0 0 0 0 0 0 0 0 0 0 -0 0 0 0 0 0 0 0 0
0 0 0 0 0 -0 1 1 2 2 2 2 2 2 2 1 0 0 1 0 0 0 0 0 0 0 0 0 0 0 -0 0 0 0 -0 0 0 0 0 0 0 0 0
0 0 0 0 0 1 1 1 2 4 3 3 2 3 2 2 0 0 0 0 0 0 0 0 0 0 0 0 0 -0 0 0 0 0 0 0 0 0 0 0 0 0 0
1 1 -0 0 1 1 0 0 1 4 4 3 2 2 2 1 0 0 0 0 0 0 0 0 0 0 0 0 0 0 0 0 0 0 0 0 0 0 0 0 0 0 0
2 2 1 1 0 0 0 0 2 4 3 2 1 2 1 0 0 0 0 0 0 0 0 0 0 0 0 0 0 0 0 0 0 0 0 0 0 0 0 0 0 -0 0
2 2 2 1 2 3 0 0 2 2 3 2 2 0 0 0 0 0 0 0 0 0 0 0 0 0 0 0 -0 0 0 0 0 0 0 0 0 0 0 0 0 0 0
Wind_Speed_500mb
57 51 51 42 42 40 38 34 30 28 28 24 20 20 16 14 10 6 11 16 11 7 9 13 14 19 26 33 40 45 50 45 34 27 21 16 13 14 14 18 17 18 17
61 52 55 49 45 44 39 39 35 32 29 23 23 22 20 15 11 10 14 16 13 7 7 10 13 18 25 32 39 44 48 41 34 29 26 22 18 17 18 18 18 18 18
66 61 54 53 48 45 44 40 39 36 27 26 25 21 19 17 15 14 12 13 7 9 7 7 11 16 23 29 37 41 44 38 32 30 27 26 26 24 22 22 23 21 20
68 74 55 55 49 48 46 44 40 36 31 28 26 22 16 19 17 14 13 18 16 16 9 6 11 13 19 26 34 38 40 36 29 29 28 28 27 26 26 27 26 25 24
73 69 60 54 55 51 46 44 41 37 32 31 28 24 23 19 23 16 19 20 15 15 12 10 12 13 17 23 30 35 37 34 28 26 28 28 27 27 29 28 28 26 25
74 78 64 58 61 53 47 45 46 42 35 36 28 24 21 20 19 22 19 23 23 19 16 12 9 10 22 23 25 32 36 31 26 24 27 28 31 30 29 28 26 27 27
78 81 67 69 68 58 53 54 51 48 49 35 32 29 22 21 21 22 21 25 24 16 14 10 12 12 13 24 25 26 31 29 25 24 26 29 30 30 33 31 29 29 30
82 85 77 68 68 57 61 58 59 45 43 43 42 36 31 23 24 26 22 22 21 21 16 10 9 5 13 18 27 22 28 25 22 23 24 27 30 31 32 31 29 27 30
86 88 82 69 70 62 61 70 69 56 45 47 47 42 37 27 35 31 33 20 26 23 21 20 29 25 19 18 18 20 25 20 15 19 23 27 30 32 32 31 30 31 31
88 77 82 84 76 71 60 71 67 62 51 51 51 51 38 23 36 28 28 29 23 28 21 26 29 22 12 18 14 21 21 15 10 14 19 24 28 30 31 32 30 29 31
88 81 78 86 85 84 78 73 65 64 67 49 48 48 45 27 22 18 43 36 29 25 31 30 31 22 15 14 14 10 16 10 7 10 15 21 24 27 30 32 32 31 31
85 88 81 87 97 93 84 79 67 62 63 61 49 45 49 46 36 32 21 45 35 33 31 26 31 24 18 19 23 16 14 7 3 8 13 18 21 24 27 31 31 32 33
77 87 87 89 89 95 86 78 74 66 67 63 59 50 46 41 39 32 32 31 45 33 18 21 25 30 23 27 19 10 8 7 3 5 9 15 19 22 25 27 29 29 33
84 83 92 93 89 90 90 86 69 68 62 71 71 54 48 42 42 39 35 33 26 27 23 20 27 29 28 31 22 11 5 7 8 7 9 10 15 20 23 28 29 32 35
89 97 96 108 97 95 91 84 77 66 63 70 65 77 55 43 44 42 38 36 37 30 35 39 24 36 36 29 18 6 9 13 7 6 8 8 12 17 22 25 31 34 35
78 88 93 101 98 90 84 82 79 65 71 60 66 64 70 54 46 47 43 39 37 35 24 29 35 38 39 31 24 15 13 13 11 10 6 6 9 13 19 25 31 35 36
71 103 86 90 99 99 92 90 85 79 73 73 64 65 66 63 58 51 47 42 38 35 33 26 33 35 39 32 26 17 11 6 10 12 8 5 6 12 17 24 29 33 33
75 43 66 81 94 99 95 91 85 74 80 79 78 71 66 59 70 57 51 49 42 41 40 48 44 37 38 31 22 17 19 12 20 15 10 3 5 11 16 21 26 30 29
71 78 69 69 78 87 98 87 79 84 75 74 77 73 63 61 63 62 52 49 49 40 45 37 35 30 32 32 27 22 27 27 24 17 10 3 5 13 17 18 22 26 26
77 94 89 76 56 59 65 70 77 83 74 76 67 70 70 68 72 65 62 54 53 37 35 33 33 34 34 31 27 25 27 26 22 17 9 6 7 15 24 14 20 22 25
58 94 132 121 97 156 89 89 78 75 77 70 61 63 68 63 59 63 65 59 58 46 40 38 38 41 39 40 35 30 25 23 16 17 16 2 6 12 16 22 23 27 24
68 66 84 98 106 94 80 76 71 70 70 69 61 58 53 57 57 61 64 53 65 59 48 46 52 45 40 34 32 29 34 35 24 25 16 5 11 5 11 19 23 28 26
57 57 69 94 93 90 80 73 73 67 68 64 57 53 53 56 65 73 71 64 59 58 51 47 49 42 38 35 30 32 32 29 23 26 28 18 21 12 17 12 22 29 27
37 67 70 80 43 63 70 72 72 63 54 49 47 47 52 67 67 76 72 71 62 50 48 45 43 41 31 25 26 29 42 33 24 20 28 20 23 12 15 13 19 29 24
55 41 77 81 61 57 62 66 68 58 45 40 41 50 62 59 62 62 62 73 65 60 56 55 49 39 25 25 33 41 36 35 23 22 29 14 17 12 13 14 18 29 29
24 47 45 58 59 58 42 51 53 49 47 41 57 55 52 49 48 48 60 78 74 70 68 60 44 33 30 33 40 36 34 32 28 22 25 16 22 19 14 9 9 20 26
Wind_Direction_500mb
207 209 204 210 212 208 209 210 207 220 215 220 218 220 218 221 231 223 256 288 280 300 326 340 347 353 0 360 5 9 11 13 18 19 15 16 358 354 344 352 354 348 350
208 207 202 205 209 206 211 206 211 213 213 217 218 215 213 216 225 213 232 266 239 253 309 336 341 352 357 358 6 8 12 15 20 23 24 25 21 12 11 5 4 359 357
206 204 204 205 204 207 207 209 211 212 216 211 216 220 211 212 218 207 221 270 283 261 273 313 332 348 352 356 4 8 11 15 22 26 27 27 27 26 21 14 12 3 0
200 210 206 207 203 205 207 206 206 209 210 212 216 216 217 211 205 206 192 252 258 278 258 281 311 338 345 353 0 8 11 14 19 23 24 28 30 29 27 24 18 10 10
202 211 201 209 202 205 210 205 210 208 212 208 213 208 204 211 201 214 197 237 232 248 265 290 301 333 338 347 357 3 9 14 19 18 19 20 22 22 20 15 9 4 6
207 211 201 206 203 204 209 206 206 207 206 209 204 206 206 206 207 204 217 205 237 222 247 289 308 346 343 342 352 360 4 10 18 15 18 15 19 16 13 12 5 3 5
208 210 200 202 209 202 203 205 204 204 196 205 190 197 201 196 201 209 211 221 221 217 204 252 285 333 337 337 352 352 0 5 13 13 17 25 23 20 20 22 18 24 15
207 209 202 209 209 198 202 208 199 200 202 199 191 196 196 204 215 209 207 222 212 219 200 204 225 311 346 313 330 346 355 360 10 17 26 33 29 24 25 26 23 24 22
210 207 210 202 210 195 205 203 209 196 200 201 192 198 201 209 193 195 204 204 202 214 201 198 220 226 193 261 325 338 345 354 19 28 37 35 35 32 28 28 25 26 26
208 211 211 199 211 207 202 210 212 203 197 200 202 206 214 230 181 172 194 204 195 221 215 216 239 221 214 224 248 287 331 340 18 38 46 40 40 36 30 29 26 27 24
211 206 211 208 208 218 206 215 210 205 198 202 204 205 218 219 220 194 180 193 199 216 218 219 226 225 195 221 290 306 332 328 14 48 55 47 42 37 33 30 31 28 27
209 211 212 213 213 219 216 217 217 218 207 197 205 206 209 210 217 224 225 186 188 195 229 247 207 224 231 195 213 294 312 312 0 36 47 49 42 35 34 28 31 28 23
206 210 209 215 214 217 213 213 215 215 210 204 197 207 209 213 215 211 217 212 178 166 188 237 213 204 204 221 235 253 267 243 153 91 54 40 36 32 33 27 26 20 15
209 214 212 213 215 216 208 212 207 206 210 199 201 196 210 211 213 217 214 216 166 162 191 216 209 200 202 213 242 274 253 265 162 149 102 48 33 29 29 26 19 13 8
220 219 216 209 210 211 203 204 198 206 205 205 203 203 201 210 215 218 222 221 226 192 197 218 198 208 212 214 225 213 279 267 217 176 113 60 33 26 23 19 15 10 4
215 209 215 211 206 202 201 201 201 206 200 210 201 211 211 206 216 218 220 225 228 232 219 200 200 208 212 208 200 194 244 248 205 188 158 77 36 20 15 11 10 10 7
224 211 211 207 204 202 203 204 207 198 210 203 206 206 216 206 212 219 218 224 226 224 230 184 190 205 198 208 195 197 206 203 211 195 187 92 27 11 8 4 5 9 12
239 244 218 208 201 204 202 202 204 202 205 210 207 201 210 213 210 212 217 219 223 221 214 194 192 199 198 205 193 181 137 196 250 187 187 125 14 358 1 0 4 8 14
239 213 222 205 205 208 199 199 200 206 206 211 207 204 204 208 218 211 214 217 217 208 201 188 198 192 192 191 181 169 153 202 227 193 199 155 357 359 352 357 6 10 13
247 226 221 233 203 204 200 200 198 194 196 205 203 204 206 208 215 214 215 212 204 193 187 183 177 177 183 188 185 175 176 198 200 177 181 103 26 11 360 29 12 9 12
243 223 223 228 234 252 202 198 196 196 198 205 208 208 212 212 222 223 212 207 213 195 180 174 174 191 189 185 187 176 173 180 180 201 180 266 26 11 28 10 18 19 17
216 225 219 224 228 199 192 189 188 190 195 201 201 203 206 214 214 224 221 217 222 198 186 190 199 201 195 191 192 169 171 182 187 202 204 183 260 162 240 345 22 22 22
220 218 233 212 186 185 189 190 189 193 197 199 199 205 206 214 217 219 219 211 215 211 222 231 214 200 188 193 187 177 182 189 204 195 178 188 230 220 282 16 11 16 19
220 195 202 240 214 189 193 193 193 189 191 197 203 211 212 212 222 222 218 207 207 203 205 207 202 192 187 193 187 178 194 176 194 178 176 201 210 205 241 319 353 9 16
217 206 207 208 200 216 201 198 197 188 185 201 202 204 214 220 224 236 218 206 198 195 196 197 195 192 209 208 196 176 181 183 189 193 194 192 191 175 186 303 350 2 11
222 217 207 212 199 200 202 206 199 191 196 200 208 216 219 229 233 237 221 203 199 198 197 190 195 215 201 191 182 180 181 186 187 184 199 195 178 156 166 176 341 9 6
Wind_Speed_850mb
57 51 51 42 42 40 38 34 30 28 28 24 20 20 16 14 10 6 11 16 11 7 9 13 14 19 26 33 40 45 50 45 34 27 21 16 13 14 14 18 17 18 17
61 52 55 49 45 44 39 39 35 32 29 23 23 22 20 15 11 10 14 16 13 7 7 10 13 18 25 32 39 44 48 41 34 29 26 22 18 17 18 18 18 18 18
66 61 54 53 48 45 44 40 39 36 27 26 25 21 19 17 15 14 12 13 7 9 7 7 11 16 23 29 37 41 44 38 32 30 27 26 26 24 22 22 23 21 20
68 74 55 55 49 48 46 44 40 36 31 28 26 22 16 19 17 14 13 18 16 16 9 6 11 13 19 26 34 38 40 36 29 29 28 28 27 26 26 27 26 25 24
73 69 60 54 55 51 46 44 41 37 32 31 28 24 23 19 23 16 19 20 15 15 12 10 12 13 17 23 30 35 37 34 28 26 28 28 27 27 29 28 28 26 25
74 78 64 58 61 53 47 45 46 42 35 36 28 24 21 20 19 22 19 23 23 19 16 12 9 10 22 23 25 32 36 31 26 24 27 28 31 30 29 28 26 27 27
78 81 67 69 68 58 53 54 51 48 49 35 32 29 22 21 21 22 21 25 24 16 14 10 12 12 13 24 25 26 31 29 25 24 26 29 30 30 33 31 29 29 30
82 85 77 68 68 57 61 58 59 45 43 43 42 36 31 23 24 26 22 22 21 21 16 10 9 5 13 18 27 22 28 25 22 23 24 27 30 31 32 31 29 27 30
86 88 82 69 70 62 61 70 69 56 45 47 47 42 37 27 35 31 33 20 26 23 21 20 29 25 19 18 18 20 25 20 15 19 23 27 30 32 32 31 30 31 31
88 77 82 84 76 71 60 71 67 62 51 51 51 51 38 23 36 28 28 29 23 28 21 26 29 22 12 18 14 21 21 15 10 14 19 24 28 30 31 32 30 29 31
88 81 78 86 85 84 78 73 65 64 67 49 48 48 45 27 22 18 43 36 29 25 31 30 31 22 15 14 14 10 16 10 7 10 15 21 24 27 30 32 32 31 31
85 88 81 87 97 93 84 79 67 62 63 61 49 45 49 46 36 32 21 45 35 33 31 26 31 24 18 19 23 16 14 7 3 8 13 18 21 24 27 31 31 32 33
77 87 87 89 89 95 86 78 74 66 67 63 59 50 46 41 39 32 32 31 45 33 18 21 25 30 23 27 19 10 8 7 3 5 9 15 19 22 25 27 29 29 33
84 83 92 93 89 90 90 86 69 68 62 71 71 54 48 42 42 39 35 33 26 27 23 20 27 29 28 31 22 11 5 7 8 7 9 10 15 20 23 28 29 32 35
89 97 96 108 97 95 91 84 77 66 63 70 65 77 55 43 44 42 38 36 37 30 35 39 24 36 36 29 18 6 9 13 7 6 8 8 12 17 22 25 31 34 35
78 88 93 101 98 90 84 82 79 65 71 60 66 64 70 54 46 47 43 39 37 35 24 29 35 38 39 31 24 15 13 13 11 10 6 6 9 13 19 25 31 35 36
71 103 86 90 99 99 92 90 85 79 73 73 64 65 66 63 58 51 47 42 38 35 33 26 33 35 39 32 26 17 11 6 10 12 8 5 6 12 17 24 29 33 33
75 43 66 81 94 99 95 91 85 74 80 79 78 71 66 59 70 57 51 49 42 41 40 48 44 37 38 31 22 17 19 12 20 15 10 3 5 11 16 21 26 30 29
71 78 69 69 78 87 98 87 79 84 75 74 77 73 63 61 63 62 52 49 49 40 45 37 35 30 32 32 27 22 27 27 24 17 10 3 5 13 17 18 22 26 26
77 94 89 76 56 59 65 70 77 83 74 76 67 70 70 68 72 65 62 54 53 37 35 33 33 34 34 31 27 25 27 26 22 17 9 6 7 15 24 14 20 22 25
58 94 132 121 97 156 89 89 78 75 77 70 61 63 68 63 59 63 65 59 58 46 40 38 38 41 39 40 35 30 25 23 16 17 16 2 6 12 16 22 23 27 24
68 66 84 98 106 94 80 76 71 70 70 69 61 58 53 57 57 61 64 53 65 59 48 46 52 45 40 34 32 29 34 35 24 25 16 5 11 5 11 19 23 28 26
57 57 69 94 93 90 80 73 73 67 68 64 57 53 53 56 65 73 71 64 59 58 51 47 49 42 38 35 30 32 32 29 23 26 28 18 21 12 17 12 22 29 27
37 67 70 80 43 63 70 72 72 63 54 49 47 47 52 67 67 76 72 71 62 50 48 45 43 41 31 25 26 29 42 33 24 20 28 20 23 12 15 13 19 29 24
55 41 77 81 61 57 62 66 68 58 45 40 41 50 62 59 62 62 62 73 65 60 56 55 49 39 25 25 33 41 36 35 23 22 29 14 17 12 13 14 18 29 29
24 47 45 58 59 58 42 51 53 49 47 41 57 55 52 49 48 48 60 78 74 70 68 60 44 33 30 33 40 36 34 32 28 22 25 16 22 19 14 9 9 20 26
Wind_Direction_850mb
207 209 204 210 212 208 209 210 207 220 215 220 218 220 218 221 231 223 256 288 280 300 326 340 347 353 0 360 5 9 11 13 18 19 15 16 358 354 344 352 354 348 350
208 207 202 205 209 206 211 206 211 213 213 217 218 215 213 216 225 213 232 266 239 253 309 336 341 352 357 358 6 8 12 15 20 23 24 25 21 12 11 5 4 359 357
206 204 204 205 204 207 207 209 211 212 216 211 216 220 211 212 218 207 221 270 283 261 273 313 332 348 352 356 4 8 11 15 22 26 27 27 27 26 21 14 12 3 0
200 210 206 207 203 205 207 206 206 209 210 212 216 216 217 211 205 206 192 252 258 278 258 281 311 338 345 353 0 8 11 14 19 23 24 28 30 29 27 24 18 10 10
202 211 201 209 202 205 210 205 210 208 212 208 213 208 204 211 201 214 197 237 232 248 265 290 301 333 338 347 357 3 9 14 19 18 19 20 22 22 20 15 9 4 6
207 211 201 206 203 204 209 206 206 207 206 209 204 206 206 206 207 204 217 205 237 222 247 289 308 346 343 342 352 360 4 10 18 15 18 15 19 16 13 12 5 3 5
208 210 200 202 209 202 203 205 204 204 196 205 190 197 201 196 201 209 211 221 221 217 204 252 285 333 337 337 352 352 0 5 13 13 17 25 23 20 20 22 18 24 15
207 209 202 209 209 198 202 208 199 200 202 199 191 196 196 204 215 209 207 222 212 219 200 204 225 311 346 313 330 346 355 360 10 17 26 33 29 24 25 26 23 24 22
210 207 210 202 210 195 205 203 209 196 200 201 192 198 201 209 193 195 204 204 202 214 201 198 220 226 193 261 325 338 345 354 19 28 37 35 35 32 28 28 25 26 26
208 211 211 199 211 207 202 210 212 203 197 200 202 206 214 230 181 172 194 204 195 221 215 216 239 221 214 224 248 287 331 340 18 38 46 40 40 36 30 29 26 27 24
211 206 211 208 208 218 206 215 210 205 198 202 204 205 218 219 220 194 180 193 199 216 218 219 226 225 195 221 290 306 332 328 14 48 55 47 42 37 33 30 31 28 27
209 211 212 213 213 219 216 217 217 218 207 197 205 206 209 210 217 224 225 186 188 195 229 247 207 224 231 195 213 294 312 312 0 36 47 49 42 35 34 28 31 28 23
206 210 209 215 214 217 213 213 215 215 210 204 197 207 209 213 215 211 217 212 178 166 188 237 213 204 204 221 235 253 267 243 153 91 54 40 36 32 33 27 26 20 15
209 214 212 213 215 216 208 212 207 206 210 199 201 196 210 211 213 217 214 216 166 162 191 216 209 200 202 213 242 274 253 265 162 149 102 48 33 29 29 26 19 13 8
220 219 216 209 210 211 203 204 198 206 205 205 203 203 201 210 215 218 222 221 226 192 197 218 198 208 212 214 225 213 279 267 217 176 113 60 33 26 23 19 15 10 4
215 209 215 211 206 202 201 201 201 206 200 210 201 211 211 206 216 218 220 225 228 232 219 200 200 208 212 208 200 194 244 248 205 188 158 77 36 20 15 11 10 10 7
224 211 211 207 204 202 203 204 207 198 210 203 206 206 216 206 212 219 218 224 226 224 230 184 190 205 198 208 195 197 206 203 211 195 187 92 27 11 8 4 5 9 12
239 244 218 208 201 204 202 202 204 202 205 210 207 201 210 213 210 212 217 219 223 221 214 194 192 199 198 205 193 181 137 196 250 187 187 125 14 358 1 0 4 8 14
239 213 222 205 205 208 199 199 200 206 206 211 207 204 204 208 218 211 214 217 217 208 201 188 198 192 192 191 181 169 153 202 227 193 199 155 357 359 352 357 6 10 13
247 226 221 233 203 204 200 200 198 194 196 205 203 204 206 208 215 214 215 212 204 193 187 183 177 177 183 188 185 175 176 198 200 177 181 103 26 11 360 29 12 9 12
243 223 223 228 234 252 202 198 196 196 198 205 208 208 212 212 222 223 212 207 213 195 180 174 174 191 189 185 187 176 173 180 180 201 180 266 26 11 28 10 18 19 17
216 225 219 224 228 199 192 189 188 190 195 201 201 203 206 214 214 224 221 217 222 198 186 190 199 201 195 191 192 169 171 182 187 202 204 183 260 162 240 345 22 22 22
220 218 233 212 186 185 189 190 189 193 197 199 199 205 206 214 217 219 219 211 215 211 222 231 214 200 188 193 187 177 182 189 204 195 178 188 230 220 282 16 11 16 19
220 195 202 240 214 189 193 193 193 189 191 197 203 211 212 212 222 222 218 207 207 203 205 207 202 192 187 193 187 178 194 176 194 178 176 201 210 205 241 319 353 9 16
217 206 207 208 200 216 201 198 197 188 185 201 202 204 214 220 224 236 218 206 198 195 196 197 195 192 209 208 196 176 181 183 189 193 194 192 191 175 186 303 350 2 11
222 217 207 212 199 200 202 206 199 191 196 200 208 216 219 229 233 237 221 203 199 198 197 190 195 215 201 191 182 180 181 186 187 184 199 195 178 156 166 176 341 9 6